User: anonymous   Login
Location: Unspecified
(0.0000°N, 0.0000°E)
Time: 22:45:35
(UTC+00:00)
Language:

STARLINK-33962 - Orbit

View from above orbital plane
View from above orbital plane
View from above satellite
View from above satellite

Ground track
Ground track

The orbit is defined by the following mean orbital elements,

1 63950U          26145.25402414 +.00000000 +00000-0 +25817-3 0 00002
2 63950  70.0009  81.3034 0002975 261.9737  98.1084 14.98337527    07
Epoch (UTC): 25 May 2026 06:05:47
Eccentricity: 0.0002975
inclination: 70.0009°
perigee height: 570 km
apogee height: 574 km
right ascension of ascending node: 81.3034°
argument of perigee: 261.9737°
revolutions per day: 14.98337527
mean anomaly at epoch: 98.1084°

The dashed part of the orbit path shows where the satellite is in the earth's shadow,  

DLR